Flag for Belgium Weather past 2 weeks in Leuven, Belgium

Now
46 °F

Passing clouds.


Feels Like: 40 °F
Forecast: 45 / 52 °F
Wind: 16 mph from West

Location: Brussels National Airport

Current Time: Oct 21, 2014 at 8:46:06 PM

Latest Report: Oct 21, 2014 at 7:50 PM


Visibility: N/A

Pressure: 29.77 "Hg

Humidity: 76%

Dew point: 39 °F

Location of LeuvenLocation

Historic Weather in Leuven — Graph

°F

Leuven temperature yesterday

Maximum temperature yesterday: 63 °F (at 4:20 PM)
Minimum temperature yesterday: 54 °F (at 10:50 PM)
Average temperature yesterday: 58 °F

Past Weeks' High & Low Weather Summary

 TemperatureHumidityPressure
High73 °F (Oct 18, 2:20 PM)94% (Oct 7, 1:50 AM)30.07 "Hg (Oct 7, 1:50 AM)
Low46 °F (Oct 21, 5:20 PM)57% (Oct 18, 5:20 PM)29.47 "Hg (Oct 7, 7:20 AM)
Average57 °F82%29.80 "Hg
* Reported Oct 6 7:20 PM — Oct 21 7:50 PM, Leuven, Weather by CustomWeather, © 2014

Note: Actual official high and low records may vary slightly from our data, if they occured in-between our weather recording intervals... More about our weather records

Advertising

Leuven weather history for previous 24 hours

 ConditionsComfort  
Time TempWeatherWind HumidityBarometerVisibility
7:50 PM
Oct 21
46 °FPassing clouds.16 mph76%29.77 "HgN/A
7:20 PM46 °FLight rain. Partly sunny.22 mph76%29.77 "HgN/A
6:50 PM48 °FThunderstorms. Scattered clouds.13 mph71%29.74 "Hg4 mi
6:20 PM48 °FScattered clouds.12 mph76%29.71 "HgN/A
5:50 PM48 °FScattered clouds.17 mph76%29.71 "HgN/A
5:20 PM46 °FScattered showers. Partly sunny.18 mph76%29.68 "HgN/A
4:50 PM52 °FSprinkles. Partly sunny.23 mph72%29.65 "Hg6 mi
4:20 PM50 °FScattered clouds.22 mph76%29.65 "HgN/A
3:50 PM54 °FScattered clouds.21 mph82%29.62 "HgN/A
3:20 PM52 °FSprinkles. Broken clouds.20 mph88%29.59 "HgN/A
2:50 PM52 °FSprinkles. Partly sunny.25 mph94%29.59 "Hg5 mi
2:20 PM55 °FLots of rain. Partly sunny.23 mph88%29.56 "Hg1 mi
1:50 PM55 °FRain. Broken clouds.26 mph88%29.56 "Hg4 mi
1:20 PM55 °FRain. Broken clouds.23 mph88%29.56 "Hg4 mi
12:50 PM57 °FPartly sunny.22 mph82%29.59 "HgN/A
12:20 PM55 °FSprinkles. Partly sunny.22 mph82%29.62 "Hg3 mi
11:50 AM54 °FPartly sunny.22 mph88%29.65 "HgN/A
11:20 AM54 °FLight rain. Partly sunny.21 mph88%29.65 "HgN/A
10:50 AM54 °FLight rain. Partly sunny.21 mph82%29.68 "HgN/A
10:20 AM54 °FPartly sunny.16 mph82%29.71 "HgN/A
9:50 AM54 °FLight rain. Partly sunny.17 mph82%29.74 "Hg5 mi
9:20 AM54 °FSprinkles. Broken clouds.15 mph88%29.74 "HgN/A
8:50 AM54 °FPartly cloudy.16 mph88%29.77 "HgN/A
8:20 AM54 °FPassing clouds.13 mph82%29.77 "HgN/A
7:50 AM54 °FPassing clouds.14 mph82%29.77 "HgN/A
7:20 AM54 °FPassing clouds.15 mph82%29.80 "HgN/A
6:50 AM54 °FPassing clouds.14 mph82%29.80 "HgN/A
6:20 AM54 °FPassing clouds.15 mph82%29.80 "HgN/A
5:50 AM54 °FPassing clouds.13 mph82%29.83 "HgN/A
4:50 AM54 °FPassing clouds.9 mph88%29.86 "HgN/A
4:20 AM54 °FPassing clouds.12 mph88%29.89 "HgN/A
3:50 AM54 °FPassing clouds.10 mph88%29.89 "HgN/A
3:20 AM54 °FClear.12 mph88%29.92 "Hg10 mi
2:50 AM54 °FClear.10 mph82%29.92 "Hg10 mi
2:20 AM54 °FClear.12 mph82%29.92 "Hg10 mi
1:50 AM54 °FClear.10 mph82%29.92 "Hg10 mi
1:20 AM54 °FClear.12 mph82%29.95 "Hg10 mi
12:50 AM54 °FClear.10 mph82%29.95 "Hg10 mi
12:20 AM54 °FClear.10 mph82%29.95 "Hg10 mi
11:50 PM
Oct 20
54 °FClear.9 mph88%29.95 "Hg10 mi
11:20 PM54 °FClear.8 mph88%29.98 "Hg10 mi
10:50 PM54 °FClear.8 mph88%29.98 "Hg10 mi
10:20 PM55 °FClear.8 mph82%29.98 "Hg10 mi
9:50 PM55 °FClear.9 mph82%29.98 "Hg10 mi
9:20 PM55 °FPassing clouds.8 mph82%29.98 "HgN/A
8:50 PM55 °FPassing clouds.8 mph88%29.98 "HgN/A
8:20 PM57 °FPassing clouds.9 mph82%30.01 "HgN/A
Weather by CustomWeather, © 2014

See weather overviewHow to use our weather pages